Погода в Синьи

Китай     25°05′24″N   104°53′24″E
темп.,
°C
ветер,
м/с
пор.,
м/с
влажн.,
%
обл.,
%
осадки,
мм/ч
давл.,
гПа
погр.,
м
14 апреля, ср
ср1423:00+18юв129791 3.9 1011128
02:00+18в1193100 4.8 1011213
05:00+17в129591 0.6 1010133
08:00+18в129286 0.6 1013254
11:00+20в2281100 0.1 1013633
14:00+22юв337382 0.3 1009869
17:00+21юв348064 0.8 1007613
20:00+17всв1393100 2.4 1008210
15 апреля, чт
чт1523:00+17всв2393100 0.9 1011388
02:00+16св2391100 1.9 1011259
05:00+15всв1292100 0.4 1010134
08:00+16в1291100 0.4 1012297
11:00+19вюв227996 0.0 1012710
14:00+22вюв336733 0.1 1008994
17:00+21в557563 0.1 1007763
20:00+18всв3587100 0.6 1011439
16 апреля, пт
пт1623:00+16ссв3688100 0.7 1014560
02:00+15ссв3689100 2.1 1014519
05:00+14ссв2688100 0.6 1015543
08:00+14ссв2588100 1.0 1017551
11:00+15св2585100 0.3 1019586
14:00+15св3479100 0.3 1017712
17:00+15всв3479100 0.0 1015758
20:00+14ссв2586100 0.3 1018393
17 апреля, сб
сб1723:00+13ссв2491100 1.2 1021407
02:00+13с2592100 2.3 1020504
05:00+13с1390100 1.0 1019233
08:00+13св1290100 1.3 1021232
11:00+13всв1186100 0.3 1022356
14:00+14вюв1181100 0.3 1019584
17:00+15вюв1180100 0.0 1016546
20:00+14ююв1291100 0.0 101896
18 апреля, вс
вс1823:00+13вюв1294100 0.0 1019156
02:00+13юв1195100 0.1 1018139
05:00+13ююв2397100 0.0 1016216
08:00+13ююв1197100 0.1 1017211
11:00+14юв1194100 0.0 1017367
14:00+15юв239092 0.1 1013425
17:00+17вюв2388100 0.0 1009469
20:00+16в2393100 0.1 1011231